Showing default

YAOGAN-39 01B, 57728

Orbit data source: Space-Track

YAOGAN-39 01B, 57728 is a payload satellite owned by PLA GAD (CN) in LEO that was launched on Thu, 31 Aug 2023 UTC via a CHANG ZHENG 2D launch vehicle from the Xichang Space Center, China (XSC). Payload-class satellites include a variety of spacecraft equipped with specific instruments for various scientific and technological missions. These include communications satellites like Starlink; space stations such as the ISS; scientific satellites like the Hubble; Earth observation satellites from companies like Planet Labs, Umbra, and HawkEye 360; GPS; miniature CubeSats for education and research; and military/defense satellites.

Loading next visibility...
Identifier
57728, 2023-130B
Orbit
LEO
Country
Flag of CNCN / PRC
Related business
Manufacturer
SAST
Mission
Operational Defense Sigint
Bus & Motor
Unknown
Mass
~300 kg wet, ~300 kg dry
Launch date (UTC)
2023-08-31 (2 years ago)
Launch vehicle
CHANG ZHENG 2D
Launch site
Xichang Space Center, China (XSC)
Object type
Payload
Rocket body
Debris
Shape & HBR
Box + 2 Pan, 2.5 m
Radar Cross Section
11.063 m², Large (>1 m²)

Expand to show TLE details & history
Last TLE update: 16 hours ago

TLE from 16 hours ago
0 YAOGAN-39 01B
1 57728U 23130B   25259.86210781  .00008031  00000-0  39029-3 0  9992
2 57728  34.9950  56.1129 0012247 109.4392 250.7646 15.17662091113945
Epoch: 2025-09-16T20:41Z
TLE epoch observation values (Epoch: 2025-09-16T20:41:26.114Z)
Latitude
0.00002°
Longitude
109.70779°
Altitude
514.607 km
Speed
7.607 km/s
True Right ascension
03h 44m 27s
True Declination
0° 00' 00"
Sunlit
Object was in full shadow at epoch
Visualization orbit readout
Latitude
Unknown
Longitude
Unknown
Altitude
Unknown
Speed
Unknown
Apparent Right ascension
Unknown
Apparent Declination
Unknown
Sunlit
N/A
Visualization observer readout
Local Sidereal Time
05:50:18
Azimuth
Unknown
Elevation
Unknown
Doppler factor
Unknown
Orbital elements
Apogee altitude
524.595 km
Perigee altitude
507.708 km
Semi-major axis
6,894.289 km
Eccentricity
0.00122
Inclination
34.995°
RAAN
56.1129°
Arg. of periapsis
109.4392°
True anomaly
250.63216°
Mean anomaly
250.7646°
Eccentric anomaly
250.69837°
Mean motion
3.79148 °/min
Orbital period
94.95 mins
BSTAR
0.00039029
Loading maneuver chart data...
Computing Atmospheric mass density...
Loading historical data...
Loading historical data...
Loading historical data...
Loading historical data...
Loading historical data...
Loading historical data...
Loading historical data...
Other satellites on launch #130 in the year 2023 (2023-08-31 UTC)

Documentation

Showing up to 5 results
|